User: anonymous   Login
Location: Fremont
(37.5480°N, 121.9880°W)
Time: 23:59:36
(UTC-07:00)
Language:

Cosmos 1766 - Orbit

View from above orbital plane
View from above orbital plane
View from above satellite
View from above satellite

Ground track
Ground track

The orbit data is extracted from the following two-line orbital elements,

1 16881U 86055A   17202.82570876 +.00001078 +00000-0 +64153-4 0  9992
2 16881 082.5048 349.7882 0015798 348.4515 011.6350 15.10134850686660
Epoch (UTC): 21 July 2017 19:49:01
Eccentricity: 0.0015798
inclination: 82.5048°
perigee height: 525 km
apogee height: 547 km
right ascension of ascending node: 349.7882°
argument of perigee: 348.4515°
revolutions per day: 15.10134850
mean anomaly at epoch: 11.6350°
orbit number at epoch: 68666

The dashed part of the orbit path shows where the satellite is in the earth's shadow,  

DLR